This is the latest recevied weather packets stored in our database for station/object CE4TQY-10. If no packets are shown the sender has not sent any weather packets the latest 10 day(s).
| Time | Temp. | Humidity | Pressure | Rain* | Wind** | Luminosity | Snow |
|---|---|---|---|---|---|---|---|
| 1777803488 | 11.67° C | 58% | 1019.6 hPa | - | - | - | - |
| 1777802588 | 11.11° C | 64% | 1019.8 hPa | - | - | - | - |
| 1777801687 | 11.67° C | 61% | 1019.7 hPa | - | - | - | - |
| 1777800786 | 12.22° C | 59% | 1019.7 hPa | - | - | - | - |
| 1777799885 | 11.67° C | 56% | 1019.5 hPa | - | - | - | - |
| 1777798984 | 12.22° C | 54% | 1019.3 hPa | - | - | - | - |
| 1777798083 | 11.67° C | 61% | 1019.3 hPa | - | - | - | - |
| 1777797182 | 11.67° C | 62% | 1019.1 hPa | - | - | - | - |
| 1777796281 | 12.22° C | 62% | 1019.4 hPa | - | - | - | - |
| 1777795381 | 11.67° C | 60% | 1019.6 hPa | - | - | - | - |
| 1777794480 | 12.22° C | 58% | 1019.8 hPa | - | - | - | - |
| 1777793579 | 12.22° C | 56% | 1020 hPa | - | - | - | - |
| 1777792678 | 12.78° C | 54% | 1020.1 hPa | - | - | - | - |
| 1777791776 | 13.89° C | 54% | 1020.1 hPa | - | - | - | - |
| 1777790876 | 13.33° C | 57% | 1020.1 hPa | - | - | - | - |
| 1777789975 | 13.33° C | 56% | 1020.1 hPa | - | - | - | - |
| 1777789073 | 13.33° C | 61% | 1019.8 hPa | - | - | - | - |
| 1777788172 | 13.33° C | 56% | 1019.6 hPa | - | - | - | - |
| 1777787271 | 14.44° C | 59% | 1019.5 hPa | - | - | - | - |
| 1777786370 | 12.78° C | 60% | 1019.5 hPa | - | - | - | - |
| 1777785469 | 12.22° C | 65% | 1019.7 hPa | - | - | - | - |
| 1777784568 | 12.22° C | 64% | 1019.8 hPa | - | - | - | - |
| 1777783667 | 12.22° C | 63% | 1019.9 hPa | - | - | - | - |
| 1777782766 | 12.78° C | 62% | 1020.1 hPa | - | - | - | - |
| 1777781865 | 13.33° C | 61% | 1020.4 hPa | - | - | - | - |
* Rain since midnight (hover to see other rain measurements)
** Current wind speed in m/s (hover to see current wind gust speed)